Location: Grodzisk Wielkopolski
(52.2262°N, 16.3624°E)
Time: 17:59:04
(UTC+01:00)

ISS - Visible Passes

Search period start: 16 January 2019 00:00
Search period end: 26 January 2019 00:00
Orbit: 404 x 407 km, 51.6° (Epoch: 17 January)

Date Brightness Start Highest point End Pass type
(mag) Time Alt. Az. Time Alt. Az. Time Alt. Az.
23 Jan -1.4 18:37:07 10° S 18:38:06 15° S 18:38:06 15° S visible
24 Jan -1.5 17:46:29 10° SSE 17:47:42 12° SE 17:48:29 11° SE visible
24 Jan -1.1 19:20:26 10° SW 19:21:11 15° SW 19:21:11 15° SW visible
25 Jan -2.6 18:28:47 10° SW 18:31:29 29° SSE 18:31:29 29° SSE visible
